This demonstration page uses our WeatherBlox Daily Observations layout. Learn more.

Left ArrowRight Arrow

39.01783, -85.05884

Hourly Observations for June 24, 2021

Temp ( °F °C ) Dew Point ( °F °C ) Humidity (%) Winds ( mph kmh ) Pressure ( in mb ) Visibility ( mi km ) Precip ( " mm )
12:52 am 00:52 Clear 65 18.3 49 9.4 56 56 SSE 9 15 30.13 1020 10 16 N/A
1:52 am 01:52 Clear 65 18.3 49 9.4 56 56 SSE 10 17 30.13 1020 10 16 N/A
2:52 am 02:52 Clear 62 16.7 49 9.4 62 62 SSE 8 13 30.13 1020 10 16 N/A
3:52 am 03:52 Clear 63 17.2 49 9.4 60 60 SSE 7 11 30.13 1020 10 16 N/A
4:52 am 04:52 Clear 60 15.6 49 9.4 67 67 ESE 7 11 30.12 1020 10 16 N/A
5:52 am 05:52 Clear 60 15.6 49 9.4 67 67 SE 9 15 30.12 1020 10 16 N/A
6:52 am 06:52 Sunny 60 15.6 50 10 70 70 SSE 10 17 30.13 1020 10 16 N/A
7:52 am 07:52 Sunny 65 18.3 51 10.6 61 61 SSE 10 17 30.14 1021 10 16 N/A
8:52 am 08:52 Sunny 69 20.6 54 12.2 59 59 S 9 15 30.14 1021 10 16 N/A
9:52 am 09:52 Sunny 73 22.8 57 13.9 57 57 SSE 8 13 30.16 1021 10 16 N/A
10:52 am 10:52 Mostly Sunny 78 25.6 59 15 52 52 S 10 17 30.14 1021 10 16 N/A
11:52 am 11:52 Mostly Cloudy 80 26.7 60 15.6 51 51 SSW 12 19 30.13 1020 10 16 N/A
12:52 pm 12:52 Mostly Cloudy 82 27.8 61 16.1 49 49 S 17 28 30.11 1020 10 16 N/A
1:52 pm 13:52 Mostly Cloudy 82 27.8 62 16.7 51 51 SSW 13 20 30.11 1020 10 16 N/A
2:52 pm 14:52 Cloudy 82 27.8 61 16.1 49 49 SSW 12 19 30.10 1019 10 16 N/A
3:52 pm 15:52 Cloudy 83 28.3 63 17.2 51 51 SSW 13 20 30.10 1019 10 16 N/A
4:53 pm 16:53 Cloudy 82 27.8 65 18.3 56 56 SSW 10 17 30.06 1018 10 16 N/A
5:52 pm 17:52 Cloudy 81 27.2 63 17.2 54 54 SSW 7 11 30.09 1019 10 16 N/A
6:52 pm 18:52 Cloudy 81 27.2 62 16.7 53 53 SSW 9 15 30.08 1019 10 16 N/A
7:52 pm 19:52 Cloudy 79 26.1 63 17.2 58 58 S 6 9 30.07 1018 10 16 N/A
8:52 pm 20:52 Cloudy 77 25 63 17.2 62 62 S 5 7 30.07 1018 10 16 N/A
9:52 pm 21:52 Partly Cloudy 76 24.4 63 17.2 64 64 SSE 5 7 30.08 1019 10 16 N/A
10:52 pm 22:52 Partly Cloudy 73 22.8 64 17.8 74 74 SSE 7 11 30.08 1019 10 16 N/A
11:52 pm 23:52 Mostly Cloudy 74 23.3 63 17.2 69 69 SSE 15 24 30.05 1018 10 16 N/A

Powered by AerisWeather